Flag for U.S.A. Weather past 2 weeks in Sterling Heights, Michigan, U.S.A.

Now
36 °F

Passing clouds.


Feels Like: 31 °F
Forecast: 30 / 53 °F
Wind: 6 mph from South

Location: Selfridge Air National Guard Base

Current Time: Mar 31, 2015 at 9:09:49 PM

Latest Report: Mar 31, 2015 at 7:55 PM


Visibility: 10 mi

Pressure: 29.96 "Hg

Humidity: 76%

Dew point: 29 °F

Location of Sterling HeightsLocation

Historic Weather in Sterling Heights — Graph

°F

Sterling Heights temperature yesterday

Maximum temperature yesterday: 54 °F (at 3:55 PM)
Minimum temperature yesterday: 30 °F (at 10:58 PM)
Average temperature yesterday: 44 °F

Past Weeks' High & Low Weather Summary

 TemperatureHumidityPressure
High54 °F (Mar 30, 3:55 PM)100% (Mar 31, 4:03 AM)30.40 "Hg (Mar 31, 4:03 AM)
Low16 °F (Mar 27, 10:58 PM)26% (Mar 18, 2:55 PM)29.67 "Hg (Mar 30, 1:03 AM)
Average33 °F65%30.09 "Hg
* Reported Mar 16 7:55 PM — Mar 31 7:55 PM, Sterling Heights, Weather by CustomWeather, © 2015

Note: Actual official high and low records may vary slightly from our data, if they occured in-between our weather recording intervals... More about our weather records

Advertising

Sterling Heights weather history for previous 24 hours

 ConditionsComfort  
Time TempWeatherWind HumidityBarometerVisibility
7:55 PM
Tue, Mar 31
36 °FPassing clouds.6 mph76%29.96 "Hg10 mi
6:55 PM41 °FPassing clouds.6 mph68%29.93 "Hg10 mi
5:55 PM43 °FPassing clouds.No wind60%29.92 "Hg10 mi
4:55 PM42 °FScattered clouds.8 mph65%29.92 "Hg10 mi
3:55 PM40 °FBroken clouds.8 mph71%29.92 "Hg10 mi
2:55 PM39 °FMostly cloudy.9 mph75%29.90 "Hg10 mi
1:55 PM37 °FMostly cloudy.10 mph81%29.88 "Hg10 mi
12:55 PM35 °FOvercast.8 mph88%29.86 "Hg10 mi
12:01 PM34 °FMostly cloudy.8 mph93%29.80 "Hg7 mi
11:55 AM34 °FMostly cloudy.8 mph92%29.83 "Hg7 mi
10:55 AM33 °FFog.9 mph95%29.80 "Hg4 mi
9:55 AM33 °FDrizzle. Fog.13 mph96%29.78 "Hg2 mi
9:01 AM34 °FLight snow. Fog.10 mph93%29.74 "Hg2 mi
8:55 AM33 °FDrizzle. Fog.12 mph96%29.78 "Hg5 mi
8:01 AM34 °FLow clouds.13 mph93%29.74 "Hg7 mi
7:55 AM33 °FFog.13 mph97%29.77 "Hg5 mi
6:57 AM32 °FLight freezing rain. Ice fog.14 mph100%29.71 "Hg5 mi
6:04 AM32 °FLight freezing rain. Low clouds.12 mph100%29.75 "Hg8 mi
5:58 AM32 °FLight snow. Low clouds.12 mph100%29.78 "Hg7 mi
5:03 AM32 °FLight snow. Ice fog.10 mph100%29.79 "Hg1 mi
4:58 AM33 °FLight snow. Fog.10 mph97%29.81 "Hg1 mi
4:03 AM32 °FLight snow. Ice fog.10 mph100%29.81 "Hg4 mi
3:58 AM32 °FLight snow. Fog.12 mph96%29.82 "Hg2 mi
2:58 AM33 °FLight snow. Fog.8 mph88%29.91 "Hg4 mi
1:58 AM35 °FPassing clouds.9 mph74%29.91 "Hg10 mi
12:58 AMN/APassing clouds.7 mphN/A29.92 "Hg10 mi
11:58 PM
Mon, Mar 30
31 °FPassing clouds.3 mph76%29.94 "Hg10 mi
10:58 PM30 °FPassing clouds.3 mph77%29.96 "Hg10 mi
9:58 PM34 °FClear.5 mph71%29.97 "Hg10 mi
Weather by CustomWeather, © 2015

See weather overviewHow to use our weather pages